Location: Unspecified
(42.3650°N, 71.1030°W)
Time: 17:29:56
(UTC+00:00)

Transit 2A - Pass Details

Date: 02 July 2024
Orbit: 591 x 960 km, 66.7° (Epoch: 16 July)

Event Time Altitude Azimuth Distance (km) Brightness Sun altitude
Rises 03:11:43 0° 322° (NW) 3,590 10.9 -20.9°
Reaches altitude 10° 03:14:22 10° 316° (NW) 2,670 9.8 -21.1°
Maximum altitude 03:20:10 40° 249° (WSW) 1,371 7.2 -21.5°
Enters shadow 03:22:36 29° 204° (SSW) 1,671 7.3 -21.7°
